When you browse on this site, cookies collect data to enhance your experience and personalize the content and advertising you see.
Visit our Privacy Policy to learn more. By continuing to use the site, you agree to this use of cookies and data.
  • In Austria
  • List of Countries
  • For 7 days
  • Water Temperature
  • Satellite Maps
  • Weather Map
  • News
  • Weather Widgets
  • user-avatar
    Login

    Hourly Weather Rottach-Egern

    Today, 19 July, Friday

    Time Temperature Precipitation Wind Pressure Humidity
    00:00 +9°C° 0 mm 2 mps 648 mmHg 89%
    01:00 +10°C° 0 mm 1 mps 648 mmHg 90%
    02:00 +10°C° 0.1 mm 1 mps 648 mmHg 90%
    03:00 +10°C° 0.1 mm 1 mps 648 mmHg 89%
    04:00 +10°C° 0.1 mm 1 mps 648 mmHg 89%
    05:00 +11°C° 0 mm 1 mps 649 mmHg 87%
    06:00 +12°C° 0 mm 1 mps 649 mmHg 86%
    07:00 +13°C° 0 mm 1 mps 650 mmHg 84%
    08:00 +16°C° 0 mm 1 mps 651 mmHg 71%
    09:00 +20°C° 0 mm 1 mps 651 mmHg 58%
    10:00 +23°C° 0 mm 1 mps 652 mmHg 45%
    11:00 +23°C° 0 mm 1 mps 652 mmHg 43%
    12:00 +24°C° 0 mm 1 mps 652 mmHg 41%
    13:00 +24°C° 0 mm 2 mps 652 mmHg 39%
    14:00 +23°C° 0.3 mm 2 mps 652 mmHg 50%
    15:00 +20°C° 0.3 mm 2 mps 651 mmHg 61%
    16:00 +19°C° 0.3 mm 2 mps 651 mmHg 71%
    17:00 +19°C° 0.3 mm 1 mps 651 mmHg 76%
    18:00 +18°C° 0.3 mm 1 mps 651 mmHg 81%
    19:00 +15°C° 0.3 mm 0 mps 651 mmHg 86%
    20:00 +15°C° 0.2 mm 1 mps 650 mmHg 88%
    21:00 +14°C° 0.2 mm 1 mps 650 mmHg 90%
    22:00 +12°C° 0.2 mm 1 mps 650 mmHg 92%
    23:00 +12°C° 0 mm 1 mps 650 mmHg 92%

    Tomorrow, 20 July, Saturday

    Time Temperature Precipitation Wind Pressure Humidity
    00:00 +12°C° 0 mm 1 mps 650 mmHg 92%
    01:00 +11°C° 0 mm 1 mps 650 mmHg 93%
    02:00 +11°C° 0 mm 1 mps 650 mmHg 92%
    03:00 +11°C° 0 mm 1 mps 650 mmHg 92%
    04:00 +11°C° 0 mm 1 mps 650 mmHg 92%
    05:00 +12°C° 0 mm 1 mps 650 mmHg 89%
    06:00 +13°C° 0 mm 1 mps 650 mmHg 86%
    07:00 +15°C° 0 mm 1 mps 651 mmHg 83%
    08:00 +19°C° 0 mm 1 mps 652 mmHg 71%
    09:00 +22°C° 0 mm 1 mps 653 mmHg 59%
    10:00 +23°C° 0 mm 0 mps 653 mmHg 47%
    11:00 +25°C° 0 mm 1 mps 653 mmHg 44%
    12:00 +26°C° 0 mm 2 mps 654 mmHg 41%
    13:00 +26°C° 0 mm 2 mps 654 mmHg 38%
    14:00 +26°C° 0.1 mm 2 mps 653 mmHg 44%
    15:00 +25°C° 0.1 mm 2 mps 653 mmHg 50%
    16:00 +24°C° 0.1 mm 1 mps 653 mmHg 56%
    17:00 +22°C° 0.5 mm 1 mps 653 mmHg 64%
    18:00 +21°C° 0.5 mm 1 mps 652 mmHg 72%
    19:00 +19°C° 0.5 mm 1 mps 652 mmHg 81%
    20:00 +17°C° 0.2 mm 2 mps 652 mmHg 84%
    21:00 +15°C° 0.2 mm 2 mps 652 mmHg 86%
    22:00 +14°C° 0.2 mm 2 mps 652 mmHg 89%
    23:00 +13°C° 0 mm 2 mps 652 mmHg 88%

    Day after tomorrow, 21 July, Sunday

    Time Temperature Precipitation Wind Pressure Humidity
    00:00 +13°C° 0 mm 2 mps 652 mmHg 87%
    01:00 +13°C° 0 mm 2 mps 652 mmHg 86%
    02:00 +13°C° 0 mm 2 mps 652 mmHg 84%
    03:00 +13°C° 0 mm 2 mps 652 mmHg 83%
    04:00 +12°C° 0 mm 2 mps 651 mmHg 82%
    05:00 +14°C° 0.3 mm 1 mps 652 mmHg 82%
    06:00 +15°C° 0.3 mm 1 mps 652 mmHg 82%
    07:00 +16°C° 0.3 mm 1 mps 653 mmHg 82%
    08:00 +19°C° 0 mm 1 mps 654 mmHg 73%
    09:00 +20°C° 0 mm 2 mps 655 mmHg 64%
    10:00 +23°C° 0 mm 2 mps 655 mmHg 55%
    11:00 +22°C° 0.2 mm 3 mps 655 mmHg 58%
    12:00 +22°C° 0.2 mm 3 mps 656 mmHg 60%
    13:00 +22°C° 0.2 mm 3 mps 656 mmHg 63%
    14:00 +22°C° 0.6 mm 3 mps 656 mmHg 64%
    15:00 +23°C° 0.6 mm 2 mps 656 mmHg 65%
    16:00 +23°C° 0.6 mm 2 mps 656 mmHg 67%
    17:00 +20°C° 0.5 mm 2 mps 656 mmHg 75%
    18:00 +20°C° 0.5 mm 1 mps 655 mmHg 83%
    19:00 +17°C° 0.5 mm 0 mps 655 mmHg 92%
    20:00 +15°C° 0.3 mm 0 mps 655 mmHg 92%
    21:00 +14°C° 0.3 mm 0 mps 655 mmHg 93%
    22:00 +13°C° 0.3 mm 0 mps 655 mmHg 93%
    23:00 +14°C° 0 mm 1 mps 655 mmHg 93%

    22 July, Monday

    Time Temperature Precipitation Wind Pressure Humidity
    00:00 +13°C° 0 mm 1 mps 655 mmHg 93%
    01:00 +13°C° 0 mm 1 mps 655 mmHg 93%
    02:00 +13°C° 0 mm 1 mps 655 mmHg 93%
    03:00 +13°C° 0 mm 1 mps 655 mmHg 93%
    04:00 +13°C° 0 mm 1 mps 655 mmHg 93%
    05:00 +13°C° 0 mm 0 mps 655 mmHg 92%
    06:00 +14°C° 0 mm 0 mps 655 mmHg 91%
    07:00 +15°C° 0 mm 0 mps 656 mmHg 90%
    08:00 +17°C° 0.1 mm 0 mps 656 mmHg 81%
    09:00 +21°C° 0.1 mm 1 mps 657 mmHg 72%
    10:00 +23°C° 0.1 mm 1 mps 658 mmHg 62%
    11:00 +23°C° 0.3 mm 1 mps 657 mmHg 63%
    12:00 +24°C° 0.3 mm 1 mps 657 mmHg 63%
    13:00 +24°C° 0.3 mm 1 mps 657 mmHg 63%
    14:00 +24°C° 0.1 mm 1 mps 657 mmHg 61%
    15:00 +24°C° 0.1 mm 1 mps 657 mmHg 59%
    16:00 +24°C° 0.1 mm 2 mps 657 mmHg 56%
    17:00 +23°C° 0 mm 1 mps 657 mmHg 65%
    18:00 +21°C° 0 mm 1 mps 657 mmHg 74%
    19:00 +20°C° 0 mm 1 mps 656 mmHg 83%
    20:00 +19°C° 0 mm 1 mps 656 mmHg 86%
    21:00 +16°C° 0 mm 1 mps 656 mmHg 89%
    22:00 +15°C° 0 mm 1 mps 656 mmHg 93%
    23:00 +14°C° 0 mm 1 mps 656 mmHg 93%

    23 July, Tuesday

    Time Temperature Precipitation Wind Pressure Humidity
    00:00 +14°C° 0 mm 1 mps 655 mmHg 94%
    01:00 +14°C° 0 mm 1 mps 655 mmHg 95%
    02:00 +14°C° 0 mm 1 mps 655 mmHg 95%
    03:00 +13°C° 0 mm 1 mps 655 mmHg 95%
    04:00 +13°C° 0 mm 1 mps 654 mmHg 95%
    05:00 +14°C° 0 mm 1 mps 655 mmHg 91%
    06:00 +16°C° 0 mm 1 mps 655 mmHg 87%
    07:00 +16°C° 0 mm 0 mps 655 mmHg 82%
    08:00 +20°C° 0 mm 1 mps 656 mmHg 73%
    09:00 +22°C° 0 mm 1 mps 656 mmHg 64%
    10:00 +24°C° 0 mm 1 mps 657 mmHg 55%
    11:00 +25°C° 0 mm 2 mps 657 mmHg 51%
    12:00 +26°C° 0 mm 2 mps 657 mmHg 47%
    13:00 +27°C° 0 mm 2 mps 657 mmHg 43%
    14:00 +27°C° 0 mm 2 mps 656 mmHg 45%
    15:00 +26°C° 0 mm 2 mps 656 mmHg 47%
    16:00 +26°C° 0 mm 2 mps 656 mmHg 48%
    17:00 +24°C° 0 mm 2 mps 655 mmHg 58%
    18:00 +22°C° 0 mm 1 mps 654 mmHg 68%
    19:00 +20°C° 0 mm 1 mps 654 mmHg 78%
    20:00 +19°C° 0 mm 1 mps 654 mmHg 82%
    21:00 +16°C° 0 mm 1 mps 653 mmHg 86%
    22:00 +15°C° 0 mm 1 mps 653 mmHg 90%
    23:00 +15°C° 0 mm 1 mps 653 mmHg 90%

    24 July, Wednesday

    Time Temperature Precipitation Wind Pressure Humidity
    00:00 +14°C° 0 mm 1 mps 653 mmHg 90%
    01:00 +14°C° 0 mm 1 mps 653 mmHg 89%
    02:00 +14°C° 0 mm 1 mps 652 mmHg 89%
    03:00 +14°C° 0 mm 1 mps 652 mmHg 88%
    04:00 +14°C° 0 mm 1 mps 652 mmHg 87%
    05:00 +15°C° 0 mm 1 mps 653 mmHg 83%
    06:00 +16°C° 0 mm 0 mps 653 mmHg 78%
    07:00 +17°C° 0 mm 0 mps 654 mmHg 74%
    08:00 +20°C° 0 mm 0 mps 654 mmHg 66%
    09:00 +24°C° 0 mm 1 mps 655 mmHg 58%
    10:00 +26°C° 0 mm 1 mps 655 mmHg 50%
    11:00 +27°C° 0 mm 1 mps 655 mmHg 47%
    12:00 +28°C° 0 mm 1 mps 655 mmHg 43%
    13:00 +29°C° 0 mm 2 mps 655 mmHg 40%
    14:00 +28°C° 0 mm 2 mps 655 mmHg 42%
    15:00 +28°C° 0 mm 2 mps 655 mmHg 44%
    16:00 +27°C° 0 mm 2 mps 655 mmHg 46%
    17:00 +26°C° 0 mm 2 mps 654 mmHg 57%
    18:00 +24°C° 0 mm 1 mps 654 mmHg 68%
    19:00 +22°C° 0 mm 1 mps 653 mmHg 79%
    20:00 +20°C° 0.1 mm 1 mps 653 mmHg 82%
    21:00 +19°C° 0.1 mm 1 mps 653 mmHg 86%
    22:00 +18°C° 0.1 mm 1 mps 653 mmHg 90%
    23:00 +16°C° 0 mm 1 mps 653 mmHg 90%
    Show more